Погода в Выездном

Россия / Нижегородская область     55°22′56″N   43°46′53″E
темп.,
°C
ветер,
м/с
пор.,
м/с
влажн.,
%
обл.,
%
осадки,
мм/ч
давл.,
гПа
погр.,
м
9 марта, вт
вт900:00−14зсз339734 0.0 100659
03:00−16зсз339859 0.0 100862
06:00−16зсз2498100 0.1 100995
09:00−13сз369497 0.1 1011276
12:00−10ссз3589100 0.1 1012602
15:00−10ссз4687100 0.1 1012736
18:00−13ссз3794100 0.1 1013246
21:00−16ссз379691 0.1 1015160
10 марта, ср
ср1000:00−17ссз379793 0.1 1016194
03:00−19ссз379893 0.1 1018183
06:00−20ссз3897100 0.0 1020293
09:00−21ссз4795100 0.1 1022368
12:00−18ссз4791100 0.0 1023522
15:00−17ссз4788100 0.0 1024572
18:00−21ссз369487 0.0 1025128
21:00−23ссз349543 0.0 102773
11 марта, чт
чт1100:00−23сз34970 0.0 102774
03:00−23зсз379717 0.0 1028124
06:00−24зсз389851 0.0 1028170
09:00−19зсз499464 0.0 1029304
12:00−13сз598719 0.0 1029392
15:00−10сз488510 0.0 1028455
18:00−13зсз37910 0.0 1028151
21:00−17зсз34950 0.0 103072
12 марта, пт
пт1200:00−19з23930 0.0 103128
03:00−20з23960 0.0 103220
06:00−20зюз23990 0.0 103329
09:00−16зюз35920 0.0 1033192
12:00−12юз36850 0.0 1032320
15:00−9юз47830 0.0 1031459
18:00−13ююз37870 0.0 1031143
21:00−15ю36950 0.0 1031116
13 марта, сб
сб1300:00−16ююз411843 0.0 1031215
03:00−17ю411912 0.0 1030244
06:00−17ю411910 0.0 1030239
09:00−14ю510890 0.0 1029325
12:00−9ю6138297 0.0 1028585
15:00−7ю7147898 0.0 1025822
18:00−8ююз71491100 0.1 1024880
21:00−8ююз71489100 0.4 1023855